Погода в Воскресенье

Россия / Костромская область     58°30′10″N   41°19′52″E
темп.,
°C
ветер,
м/с
пор.,
м/с
влажн.,
%
обл.,
%
осадки,
мм/ч
давл.,
гПа
погр.,
м
19 мая, ср
ср1900:00+17вюв5148440 0.0 1013326
03:00+17вюв4129250 0.0 1013348
06:00+17вюв412850 0.0 1013405
09:00+22юв6126340 0.0 1012621
12:00+26юв612505 0.0 10121131
15:00+27юв712483 0.0 10111600
18:00+24юв613580 0.0 1010785
21:00+21юв515694 0.1 1011569
20 мая, чт
чт2000:00+17юв513854 1.1 1012382
03:00+14вюв39940 1.6 1011242
06:00+16вюв413880 0.8 1011413
09:00+21юв58695 0.8 1010629
12:00+25юв710560 0.0 10081414
15:00+25ююв611540 0.0 10072317
18:00+21ююв6127290 1.6 1007915
21:00+17ююв3891100 2.2 1007200
21 мая, пт
пт2100:00+14ююв369583 1.9 1005134
03:00+14ю2695100 2.6 1005156
06:00+13ююз369391 0.0 1005296
09:00+16юз577597 0.0 1005924
12:00+18юз566496 0.3 10051439
15:00+17з787382 1.9 10071122
18:00+15з497041 0.1 10091359
21:00+11зюз37795 0.1 1012115
22 мая, сб
сб2200:00+9зюз312851 0.0 1013269
03:00+8зюз37829 0.0 1015122
06:00+10зюз39755 0.0 1017270
09:00+14зюз47505 0.0 10181381
12:00+17юз45445 0.0 10181858
15:00+18юз56435 0.0 10182031
18:00+16ююз46572 0.0 1017706
21:00+12ю237089 0.0 101729
23 мая, вс
вс2300:00+10ю348010 0.0 101753
03:00+9ююз35854 0.0 101883
06:00+11ю358099 0.0 1018160
09:00+16ю246698 0.0 1017507
12:00+20ююв4548100 0.0 10151681
15:00+20юв5850100 0.0 10121526
18:00+17юв51183100 0.2 1009780
21:00+15вюв51397100 5.8 1006561